Darstellungsparameter: Aktuell verwendete Einstellungen:
Skalierung der Graphiken ... ?
xyx+y,   Skalierungsfaktor:      Skalierung: Modus: x, Faktor: 1
Darstellungszeitraum ... ?
Vom - - bis: - -   Zeitraum: 12.12.2020 - 13.12.2020
Min/Max/Avg-Anzeige ... ?
Zeige MMA aktuell
Zeige MMA Monat
Zeige MMA alles
Zeige --A aktuell
Zeige --A Monat
Zeige --A alles
Keine MMA-Anzeige
MMA:
Minimum Maximum Average (ber die Originaldaten)
MMA-Basis: 14.04.2020 - 16.05.2020
Quicknavigation für Darstellung... ?
Tage:      1T, 2T, 3T, 5T -1T -2T -3T -5T +1T +2T +3T +5T
Wochen: 1W, 2W, 3W -1W -2W -3W +1W +2W +3W
Monate: 1M, 3M, 6M -1M -3M -6M +1M +3M +6M
Jahre:    1J, 3J, 5J, 10J -1J -3J -5J -10J +1J +3J +5J +10J
Nutze für die Darstellung ... ?
Originaldaten oder Mittelwerte auf ...
Stundenbasis Tagesbasis Wochenbasis
Monatsbasis Jahresbasis      Datenbasis: Original-Daten
Darstellen als:
Statistik (Auto) Statistik J:M      Darstellung:
Zur Graphik,    zurück zur Übersicht aller Sensoren.
 
Tabellarische Datenbersicht: ?
 
Sensor: Nr:Datum:Temp:Abs-Feuchte:Windchill:Wind:
Aussen-T/F 1 12-12-2020 00:00:00 3.7 C 5.86 g/m*3 3.7 C 0 km/h
2 12-12-2020 00:05:00 3.7 C 5.86 g/m*3 3.7 C 4.8 km/h
3 12-12-2020 00:10:00 3.7 C 5.86 g/m*3 3.7 C 0 km/h
4 12-12-2020 00:15:00 3.7 C 5.86 g/m*3 3.7 C 0 km/h
5 12-12-2020 00:20:00 3.8 C 5.96 g/m*3 3.8 C 0 km/h
6 12-12-2020 00:25:00 3.8 C 5.9 g/m*3 3.8 C 0 km/h
7 12-12-2020 00:30:00 3.8 C 5.96 g/m*3 3.8 C 0 km/h
8 12-12-2020 00:35:00 3.9 C 6 g/m*3 3.9 C 0 km/h
9 12-12-2020 00:40:00 3.9 C 6 g/m*3 3.9 C 0 km/h
10 12-12-2020 00:45:00 3.9 C 6 g/m*3 3.9 C 0 km/h
11 12-12-2020 00:50:00 3.9 C 6 g/m*3 3.9 C 0 km/h
12 12-12-2020 00:55:00 4 C 6.04 g/m*3 4 C 0 km/h
13 12-12-2020 01:00:00 3.9 C 6 g/m*3 3.9 C 0 km/h
14 12-12-2020 01:05:00 3.9 C 6 g/m*3 3.9 C 3.2 km/h
15 12-12-2020 01:10:00 3.9 C 6 g/m*3 3.9 C 0 km/h
16 12-12-2020 01:15:00 3.9 C 6 g/m*3 3.9 C 1.6 km/h
17 12-12-2020 01:20:00 4 C 6.04 g/m*3 4 C 3.2 km/h
18 12-12-2020 01:25:00 4 C 6.04 g/m*3 4 C 0 km/h
19 12-12-2020 01:30:00 4.1 C 6.08 g/m*3 4.1 C 0 km/h
20 12-12-2020 01:35:00 4.1 C 6.08 g/m*3 4.1 C 0 km/h
21 12-12-2020 01:40:00 4.2 C 6.12 g/m*3 4.2 C 0 km/h
22 12-12-2020 01:45:00 4.2 C 6.12 g/m*3 4.2 C 0 km/h
23 12-12-2020 01:50:00 4.2 C 6.12 g/m*3 4.2 C 0 km/h
24 12-12-2020 01:55:00 4.2 C 6.12 g/m*3 4.2 C 0 km/h
25 12-12-2020 02:00:00 4.2 C 6.12 g/m*3 4.2 C 0 km/h
Sensor: Nr:Datum:Temp:Abs-Feuchte:Windchill:Wind:
Aussen-T/F 26 12-12-2020 02:05:00 4.3 C 6.16 g/m*3 4.3 C 0 km/h
27 12-12-2020 02:10:00 4.3 C 6.16 g/m*3 4.3 C 0 km/h
28 12-12-2020 02:15:00 4.3 C 6.16 g/m*3 4.3 C 0 km/h
29 12-12-2020 02:20:00 4.3 C 6.16 g/m*3 4.3 C 1.6 km/h
30 12-12-2020 02:25:00 4.3 C 6.16 g/m*3 4.3 C 1.6 km/h
31 12-12-2020 02:30:00 4.4 C 6.2 g/m*3 4.4 C 0 km/h
32 12-12-2020 02:35:00 4.4 C 6.2 g/m*3 4.4 C 4.8 km/h
33 12-12-2020 02:40:00 4.5 C 6.31 g/m*3 4.5 C 3.2 km/h
34 12-12-2020 02:45:00 4.6 C 6.35 g/m*3 4.6 C 0 km/h
35 12-12-2020 02:50:00 4.6 C 6.29 g/m*3 4.6 C 0 km/h
36 12-12-2020 02:55:00 4.7 C 6.33 g/m*3 4.7 C 3.2 km/h
37 12-12-2020 03:00:00 4.7 C 6.33 g/m*3 4.7 C 0 km/h
38 12-12-2020 03:05:00 4.7 C 6.33 g/m*3 4.7 C 0 km/h
39 12-12-2020 03:10:00 4.8 C 6.44 g/m*3 4.8 C 0 km/h
40 12-12-2020 03:15:00 4.8 C 6.37 g/m*3 4.8 C 0 km/h
41 12-12-2020 03:20:00 4.8 C 6.37 g/m*3 4.8 C 0 km/h
42 12-12-2020 03:25:00 4.8 C 6.37 g/m*3 4.8 C 0 km/h
43 12-12-2020 03:30:00 4.8 C 6.37 g/m*3 4.8 C 0 km/h
44 12-12-2020 03:35:00 4.8 C 6.37 g/m*3 4.8 C 0 km/h
45 12-12-2020 03:40:00 4.8 C 6.37 g/m*3 4.8 C 0 km/h
46 12-12-2020 03:45:00 4.9 C 6.41 g/m*3 4.9 C 0 km/h
47 12-12-2020 03:50:00 4.9 C 6.41 g/m*3 4.9 C 0 km/h
48 12-12-2020 03:55:00 4.9 C 6.41 g/m*3 4.9 C 0 km/h
49 12-12-2020 04:00:00 4.9 C 6.41 g/m*3 4.9 C 0 km/h
50 12-12-2020 04:05:00 4.9 C 6.41 g/m*3 4.9 C 0 km/h
Sensor: Nr:Datum:Temp:Abs-Feuchte:Windchill:Wind:
Aussen-T/F 51 12-12-2020 04:10:00 4.9 C 6.41 g/m*3 4.9 C 0 km/h
52 12-12-2020 04:15:00 4.9 C 6.41 g/m*3 4.9 C 0 km/h
53 12-12-2020 04:20:00 4.9 C 6.41 g/m*3 4.9 C 0 km/h
54 12-12-2020 04:25:00 4.9 C 6.41 g/m*3 4.9 C 0 km/h
55 12-12-2020 04:30:00 4.9 C 6.41 g/m*3 4.9 C 0 km/h
56 12-12-2020 04:35:00 4.9 C 6.41 g/m*3 4.9 C 0 km/h
57 12-12-2020 04:40:00 4.9 C 6.41 g/m*3 4.9 C 0 km/h
58 12-12-2020 04:45:00 4.9 C 6.41 g/m*3 4.9 C 0 km/h
59 12-12-2020 04:50:00 4.9 C 6.41 g/m*3 4.9 C 0 km/h
60 12-12-2020 04:55:00 4.9 C 6.41 g/m*3 4.9 C 0 km/h
61 12-12-2020 05:00:00 4.9 C 6.41 g/m*3 4.9 C 0 km/h
62 12-12-2020 05:05:00 4.9 C 6.41 g/m*3 4.9 C 0 km/h
63 12-12-2020 05:10:00 4.9 C 6.41 g/m*3 4.9 C 0 km/h
64 12-12-2020 05:15:00 4.9 C 6.41 g/m*3 4.9 C 0 km/h
65 12-12-2020 05:20:00 4.9 C 6.41 g/m*3 4.9 C 0 km/h
66 12-12-2020 05:25:00 4.9 C 6.41 g/m*3 4.9 C 0 km/h
67 12-12-2020 05:30:00 4.9 C 6.41 g/m*3 4.9 C 0 km/h
68 12-12-2020 05:35:00 4.9 C 6.41 g/m*3 4.9 C 0 km/h
69 12-12-2020 05:40:00 4.9 C 6.41 g/m*3 4.9 C 0 km/h
70 12-12-2020 05:45:00 4.9 C 6.41 g/m*3 4.9 C 0 km/h
71 12-12-2020 05:50:00 4.9 C 6.41 g/m*3 4.9 C 0 km/h
72 12-12-2020 05:55:00 5 C 6.46 g/m*3 5 C 0 km/h
73 12-12-2020 06:00:00 5 C 6.46 g/m*3 5 C 0 km/h
74 12-12-2020 06:05:00 5 C 6.46 g/m*3 5 C 0 km/h
75 12-12-2020 06:10:00 5 C 6.46 g/m*3 5 C 0 km/h
Sensor: Nr:Datum:Temp:Abs-Feuchte:Windchill:Wind:
Aussen-T/F 76 12-12-2020 06:15:00 5 C 6.46 g/m*3 5 C 0 km/h
77 12-12-2020 06:20:00 5 C 6.46 g/m*3 5 C 0 km/h
78 12-12-2020 06:25:00 5.1 C 6.5 g/m*3 5.1 C 0 km/h
79 12-12-2020 06:30:00 5.1 C 6.5 g/m*3 5.1 C 0 km/h
80 12-12-2020 06:35:00 5.1 C 6.5 g/m*3 5.1 C 0 km/h
81 12-12-2020 06:40:00 5.1 C 6.5 g/m*3 5.1 C 0 km/h
82 12-12-2020 06:45:00 5.1 C 6.5 g/m*3 5.1 C 0 km/h
83 12-12-2020 06:50:00 5.1 C 6.5 g/m*3 5.1 C 0 km/h
84 12-12-2020 06:55:00 5.1 C 6.5 g/m*3 5.1 C 0 km/h
85 12-12-2020 07:00:00 5.1 C 6.5 g/m*3 5.1 C 0 km/h
86 12-12-2020 07:05:00 5.1 C 6.57 g/m*3 5.1 C 0 km/h
87 12-12-2020 07:10:00 5.1 C 6.57 g/m*3 5.1 C 0 km/h
88 12-12-2020 07:15:00 5.1 C 6.57 g/m*3 5.1 C 0 km/h
89 12-12-2020 07:20:00 5.1 C 6.57 g/m*3 5.1 C 0 km/h
90 12-12-2020 07:25:00 5.1 C 6.57 g/m*3 5.1 C 0 km/h
91 12-12-2020 07:30:00 5.2 C 6.61 g/m*3 5.2 C 0 km/h
92 12-12-2020 07:35:00 5.2 C 6.61 g/m*3 5.2 C 1.6 km/h
93 12-12-2020 07:40:00 5.2 C 6.61 g/m*3 5.2 C 1.6 km/h
94 12-12-2020 07:45:00 5.2 C 6.61 g/m*3 5.2 C 1.6 km/h
95 12-12-2020 07:50:00 5.2 C 6.61 g/m*3 5.2 C 0 km/h
96 12-12-2020 07:55:00 5.2 C 6.61 g/m*3 5.2 C 0 km/h
97 12-12-2020 08:00:00 5.2 C 6.61 g/m*3 5.2 C 0 km/h
98 12-12-2020 08:05:00 5.2 C 6.61 g/m*3 5.2 C 0 km/h
99 12-12-2020 08:10:00 5.2 C 6.61 g/m*3 5.2 C 0 km/h
100 12-12-2020 08:15:00 5.2 C 6.61 g/m*3 5.2 C 0 km/h
Sensor: Nr:Datum:Temp:Abs-Feuchte:Windchill:Wind:
Aussen-T/F 101 12-12-2020 08:20:00 5.3 C 6.65 g/m*3 5.3 C 0 km/h
102 12-12-2020 08:25:00 5.3 C 6.65 g/m*3 5.3 C 0 km/h
103 12-12-2020 08:30:00 5.3 C 6.65 g/m*3 5.3 C 0 km/h
104 12-12-2020 08:35:00 5.3 C 6.65 g/m*3 5.3 C 0 km/h
105 12-12-2020 08:40:00 5.3 C 6.65 g/m*3 5.3 C 0 km/h
106 12-12-2020 08:45:00 5.3 C 6.65 g/m*3 5.3 C 0 km/h
107 12-12-2020 08:50:00 5.4 C 6.7 g/m*3 5.4 C 0 km/h
108 12-12-2020 08:55:00 5.4 C 6.7 g/m*3 5.4 C 0 km/h
109 12-12-2020 09:00:00 5.4 C 6.7 g/m*3 5.4 C 0 km/h
110 12-12-2020 09:05:00 5.4 C 6.7 g/m*3 5.4 C 0 km/h
111 12-12-2020 09:10:00 5.5 C 6.74 g/m*3 5.5 C 0 km/h
112 12-12-2020 09:15:00 5.5 C 6.74 g/m*3 5.5 C 0 km/h
113 12-12-2020 09:20:00 5.6 C 6.79 g/m*3 5.6 C 0 km/h
114 12-12-2020 09:25:00 5.6 C 6.79 g/m*3 5.6 C 0 km/h
115 12-12-2020 09:30:00 5.6 C 6.79 g/m*3 5.6 C 0 km/h
116 12-12-2020 09:35:00 5.7 C 6.83 g/m*3 5.7 C 0 km/h
117 12-12-2020 09:40:00 5.7 C 6.83 g/m*3 5.7 C 0 km/h
118 12-12-2020 09:45:00 5.8 C 6.88 g/m*3 5.8 C 0 km/h
119 12-12-2020 09:50:00 5.8 C 6.88 g/m*3 5.8 C 0 km/h
120 12-12-2020 09:55:00 5.9 C 6.92 g/m*3 5.9 C 0 km/h
121 12-12-2020 10:00:00 5.9 C 6.92 g/m*3 5.9 C 0 km/h
122 12-12-2020 10:05:00 6 C 6.97 g/m*3 6 C 0 km/h
123 12-12-2020 10:10:00 6.1 C 7.01 g/m*3 6.1 C 0 km/h
124 12-12-2020 10:15:00 6.1 C 7.01 g/m*3 6.1 C 0 km/h
125 12-12-2020 10:20:00 6.1 C 7.01 g/m*3 6.1 C 0 km/h
Sensor: Nr:Datum:Temp:Abs-Feuchte:Windchill:Wind:
Aussen-T/F 126 12-12-2020 10:25:00 6.1 C 7.01 g/m*3 6.1 C 0 km/h
127 12-12-2020 10:30:00 6.1 C 7.01 g/m*3 6.1 C 0 km/h
128 12-12-2020 10:35:00 6.2 C 7.06 g/m*3 6.2 C 0 km/h
129 12-12-2020 10:40:00 6.3 C 7.11 g/m*3 6.3 C 0 km/h
130 12-12-2020 10:45:00 6.3 C 7.03 g/m*3 6.3 C 0 km/h
131 12-12-2020 10:50:00 6.4 C 7.15 g/m*3 6.4 C 0 km/h
132 12-12-2020 10:55:00 6.4 C 7.08 g/m*3 6.4 C 0 km/h
133 12-12-2020 11:00:00 6.6 C 7.17 g/m*3 6.6 C 0 km/h
134 12-12-2020 11:05:00 6.6 C 7.17 g/m*3 6.6 C 0 km/h
135 12-12-2020 11:10:00 6.7 C 7.22 g/m*3 6.7 C 0 km/h
136 12-12-2020 11:15:00 6.7 C 7.14 g/m*3 6.7 C 0 km/h
137 12-12-2020 11:20:00 6.7 C 7.14 g/m*3 6.7 C 0 km/h
138 12-12-2020 11:25:00 6.8 C 7.19 g/m*3 6.8 C 0 km/h
139 12-12-2020 11:30:00 6.8 C 7.19 g/m*3 6.8 C 0 km/h
140 12-12-2020 11:35:00 6.9 C 7.16 g/m*3 6.9 C 0 km/h
141 12-12-2020 11:40:00 6.9 C 7.16 g/m*3 6.9 C 0 km/h
142 12-12-2020 11:45:00 6.9 C 7.16 g/m*3 6.9 C 0 km/h
143 12-12-2020 11:50:00 7 C 7.21 g/m*3 7 C 0 km/h
144 12-12-2020 11:55:00 7.1 C 7.25 g/m*3 7.1 C 0 km/h
145 12-12-2020 12:00:00 7.2 C 7.3 g/m*3 7.2 C 0 km/h
146 12-12-2020 12:05:00 7.2 C 7.22 g/m*3 7.2 C 0 km/h
147 12-12-2020 12:10:00 7.2 C 7.22 g/m*3 7.2 C 0 km/h
148 12-12-2020 12:15:00 7.3 C 7.27 g/m*3 7.3 C 0 km/h
149 12-12-2020 12:20:00 7.3 C 7.27 g/m*3 7.3 C 1.6 km/h
150 12-12-2020 12:25:00 7.3 C 7.27 g/m*3 7.3 C 0 km/h
Sensor: Nr:Datum:Temp:Abs-Feuchte:Windchill:Wind:
Aussen-T/F 151 12-12-2020 12:30:00 7.4 C 7.32 g/m*3 7.4 C 0 km/h
152 12-12-2020 12:35:00 7.4 C 7.32 g/m*3 7.4 C 0 km/h
153 12-12-2020 12:40:00 7.5 C 7.36 g/m*3 7.5 C 0 km/h
154 12-12-2020 12:45:00 7.6 C 7.41 g/m*3 7.6 C 0 km/h
155 12-12-2020 12:50:00 7.7 C 7.38 g/m*3 7.7 C 1.6 km/h
156 12-12-2020 12:55:00 7.7 C 7.38 g/m*3 7.7 C 1.6 km/h
157 12-12-2020 13:00:00 7.7 C 7.38 g/m*3 7.7 C 1.6 km/h
158 12-12-2020 13:05:00 7.7 C 7.38 g/m*3 7.7 C 3.2 km/h
159 12-12-2020 13:10:00 7.7 C 7.38 g/m*3 7.7 C 1.6 km/h
160 12-12-2020 13:15:00 7.7 C 7.38 g/m*3 7.7 C 1.6 km/h
161 12-12-2020 13:20:00 7.7 C 7.38 g/m*3 7.7 C 0 km/h
162 12-12-2020 13:25:00 7.7 C 7.38 g/m*3 7.7 C 0 km/h
163 12-12-2020 13:30:00 7.7 C 7.38 g/m*3 7.7 C 0 km/h
164 12-12-2020 13:35:00 7.7 C 7.38 g/m*3 7.7 C 0 km/h
165 12-12-2020 13:40:00 7.7 C 7.38 g/m*3 7.7 C 0 km/h
166 12-12-2020 13:45:00 7.7 C 7.38 g/m*3 7.7 C 0 km/h
167 12-12-2020 13:50:00 7.7 C 7.38 g/m*3 7.7 C 0 km/h
168 12-12-2020 13:55:00 7.7 C 7.38 g/m*3 7.7 C 0 km/h
169 12-12-2020 14:00:00 7.7 C 7.38 g/m*3 7.7 C 0 km/h
170 12-12-2020 14:05:00 7.6 C 7.33 g/m*3 7.6 C 0 km/h
171 12-12-2020 14:10:00 7.7 C 7.38 g/m*3 7.7 C 0 km/h
172 12-12-2020 14:15:00 7.6 C 7.33 g/m*3 7.6 C 0 km/h
173 12-12-2020 14:20:00 7.7 C 7.38 g/m*3 7.7 C 0 km/h
174 12-12-2020 14:25:00 7.7 C 7.46 g/m*3 7.7 C 0 km/h
175 12-12-2020 14:30:00 7.7 C 7.46 g/m*3 7.7 C 0 km/h
Sensor: Nr:Datum:Temp:Abs-Feuchte:Windchill:Wind:
Aussen-T/F 176 12-12-2020 14:35:00 7.7 C 7.46 g/m*3 7.7 C 0 km/h
177 12-12-2020 14:40:00 7.7 C 7.54 g/m*3 7.7 C 0 km/h
178 12-12-2020 14:45:00 7.7 C 7.46 g/m*3 7.7 C 0 km/h
179 12-12-2020 14:50:00 7.7 C 7.54 g/m*3 7.7 C 0 km/h
180 12-12-2020 14:55:00 7.7 C 7.54 g/m*3 7.7 C 3.2 km/h
181 12-12-2020 15:00:00 7.6 C 7.57 g/m*3 7.6 C 0 km/h
182 12-12-2020 15:05:00 7.6 C 7.57 g/m*3 7.6 C 0 km/h
183 12-12-2020 15:10:00 7.6 C 7.57 g/m*3 7.6 C 0 km/h
184 12-12-2020 15:15:00 7.5 C 7.52 g/m*3 7.5 C 0 km/h
185 12-12-2020 15:20:00 7.5 C 7.52 g/m*3 7.5 C 0 km/h
186 12-12-2020 15:25:00 7.5 C 7.52 g/m*3 7.5 C 0 km/h
187 12-12-2020 15:30:00 7.4 C 7.55 g/m*3 7.4 C 0 km/h
188 12-12-2020 15:35:00 7.4 C 7.48 g/m*3 7.4 C 0 km/h
189 12-12-2020 15:40:00 7.4 C 7.48 g/m*3 7.4 C 0 km/h
190 12-12-2020 15:45:00 7.4 C 7.48 g/m*3 7.4 C 0 km/h
191 12-12-2020 15:50:00 7.4 C 7.55 g/m*3 7.4 C 0 km/h
192 12-12-2020 15:55:00 7.4 C 7.55 g/m*3 7.4 C 0 km/h
193 12-12-2020 16:00:00 7.4 C 7.55 g/m*3 7.4 C 0 km/h
194 12-12-2020 16:05:00 7.4 C 7.55 g/m*3 7.4 C 0 km/h
195 12-12-2020 16:10:00 7.4 C 7.55 g/m*3 7.4 C 0 km/h
196 12-12-2020 16:15:00 7.4 C 7.55 g/m*3 7.4 C 0 km/h
197 12-12-2020 16:20:00 7.3 C 7.51 g/m*3 7.3 C 0 km/h
198 12-12-2020 16:25:00 7.3 C 7.51 g/m*3 7.3 C 0 km/h
199 12-12-2020 16:30:00 7.2 C 7.46 g/m*3 7.2 C 0 km/h
200 12-12-2020 16:35:00 7.2 C 7.38 g/m*3 7.2 C 0 km/h
Sensor: Nr:Datum:Temp:Abs-Feuchte:Windchill:Wind:
Aussen-T/F 201 12-12-2020 16:40:00 7.1 C 7.33 g/m*3 7.1 C 0 km/h
202 12-12-2020 16:45:00 7 C 7.28 g/m*3 7 C 0 km/h
203 12-12-2020 16:50:00 6.9 C 7.24 g/m*3 6.9 C 0 km/h
204 12-12-2020 16:55:00 6.8 C 7.27 g/m*3 6.8 C 0 km/h
205 12-12-2020 17:00:00 6.8 C 7.19 g/m*3 6.8 C 0 km/h
206 12-12-2020 17:05:00 6.7 C 7.14 g/m*3 6.7 C 0 km/h
207 12-12-2020 17:10:00 6.7 C 7.22 g/m*3 6.7 C 0 km/h
208 12-12-2020 17:15:00 6.7 C 7.22 g/m*3 6.7 C 0 km/h
209 12-12-2020 17:20:00 6.6 C 7.17 g/m*3 6.6 C 0 km/h
210 12-12-2020 17:25:00 6.7 C 7.22 g/m*3 6.7 C 0 km/h
211 12-12-2020 17:30:00 6.7 C 7.22 g/m*3 6.7 C 0 km/h
212 12-12-2020 17:35:00 6.7 C 7.22 g/m*3 6.7 C 0 km/h
213 12-12-2020 17:40:00 6.7 C 7.22 g/m*3 6.7 C 0 km/h
214 12-12-2020 17:45:00 6.7 C 7.22 g/m*3 6.7 C 0 km/h
215 12-12-2020 17:50:00 6.7 C 7.22 g/m*3 6.7 C 0 km/h
216 12-12-2020 17:55:00 6.7 C 7.22 g/m*3 6.7 C 0 km/h
217 12-12-2020 18:00:00 6.7 C 7.22 g/m*3 6.7 C 0 km/h
218 12-12-2020 18:05:00 6.7 C 7.22 g/m*3 6.7 C 0 km/h
219 12-12-2020 18:10:00 6.7 C 7.22 g/m*3 6.7 C 0 km/h
220 12-12-2020 18:15:00 6.7 C 7.29 g/m*3 6.7 C 0 km/h
221 12-12-2020 18:20:00 6.7 C 7.29 g/m*3 6.7 C 0 km/h
222 12-12-2020 18:25:00 6.7 C 7.29 g/m*3 6.7 C 0 km/h
223 12-12-2020 18:30:00 6.7 C 7.29 g/m*3 6.7 C 0 km/h
224 12-12-2020 18:35:00 6.7 C 7.22 g/m*3 6.7 C 0 km/h
225 12-12-2020 18:40:00 6.7 C 7.22 g/m*3 6.7 C 0 km/h
Sensor: Nr:Datum:Temp:Abs-Feuchte:Windchill:Wind:
Aussen-T/F 226 12-12-2020 18:45:00 6.6 C 7.17 g/m*3 6.6 C 0 km/h
227 12-12-2020 18:50:00 6.6 C 7.17 g/m*3 6.6 C 0 km/h
228 12-12-2020 18:55:00 6.5 C 7.12 g/m*3 6.5 C 0 km/h
229 12-12-2020 19:00:00 6.4 C 7.08 g/m*3 6.4 C 0 km/h
230 12-12-2020 19:05:00 6.4 C 7.08 g/m*3 6.4 C 0 km/h
231 12-12-2020 19:10:00 6.4 C 7.08 g/m*3 6.4 C 0 km/h
232 12-12-2020 19:15:00 6.3 C 7.11 g/m*3 6.3 C 0 km/h
233 12-12-2020 19:20:00 6.3 C 7.11 g/m*3 6.3 C 0 km/h
234 12-12-2020 19:25:00 6.3 C 7.11 g/m*3 6.3 C 0 km/h
235 12-12-2020 19:30:00 6.3 C 7.11 g/m*3 6.3 C 0 km/h
236 12-12-2020 19:35:00 6.3 C 7.11 g/m*3 6.3 C 0 km/h
237 12-12-2020 19:40:00 6.4 C 7.15 g/m*3 6.4 C 0 km/h
238 12-12-2020 19:45:00 6.4 C 7.15 g/m*3 6.4 C 0 km/h
239 12-12-2020 19:50:00 6.4 C 7.15 g/m*3 6.4 C 0 km/h
240 12-12-2020 19:55:00 6.5 C 7.2 g/m*3 6.5 C 0 km/h
241 12-12-2020 20:00:00 6.6 C 7.25 g/m*3 6.6 C 1.6 km/h
242 12-12-2020 20:05:00 6.6 C 7.25 g/m*3 6.6 C 0 km/h
243 12-12-2020 20:10:00 6.7 C 7.29 g/m*3 6.7 C 0 km/h
244 12-12-2020 20:15:00 6.7 C 7.29 g/m*3 6.7 C 0 km/h
245 12-12-2020 20:20:00 6.7 C 7.29 g/m*3 6.7 C 0 km/h
246 12-12-2020 20:25:00 6.7 C 7.29 g/m*3 6.7 C 0 km/h
247 12-12-2020 20:30:00 6.6 C 7.25 g/m*3 6.6 C 0 km/h
248 12-12-2020 20:35:00 6.6 C 7.25 g/m*3 6.6 C 0 km/h
249 12-12-2020 20:40:00 6.7 C 7.29 g/m*3 6.7 C 0 km/h
250 12-12-2020 20:45:00 6.7 C 7.29 g/m*3 6.7 C 0 km/h
Sensor: Nr:Datum:Temp:Abs-Feuchte:Windchill:Wind:
Aussen-T/F 251 12-12-2020 20:50:00 6.7 C 7.29 g/m*3 6.7 C 0 km/h
252 12-12-2020 20:55:00 6.7 C 7.29 g/m*3 6.7 C 0 km/h
253 12-12-2020 21:00:00 6.7 C 7.29 g/m*3 6.7 C 0 km/h
254 12-12-2020 21:05:00 6.7 C 7.29 g/m*3 6.7 C 0 km/h
255 12-12-2020 21:10:00 6.7 C 7.29 g/m*3 6.7 C 0 km/h
256 12-12-2020 21:15:00 6.7 C 7.29 g/m*3 6.7 C 0 km/h
257 12-12-2020 21:20:00 6.7 C 7.29 g/m*3 6.7 C 0 km/h
258 12-12-2020 21:25:00 6.7 C 7.29 g/m*3 6.7 C 0 km/h
259 12-12-2020 21:30:00 6.7 C 7.29 g/m*3 6.7 C 0 km/h
260 12-12-2020 21:35:00 6.7 C 7.29 g/m*3 6.7 C 0 km/h
261 12-12-2020 21:40:00 6.7 C 7.29 g/m*3 6.7 C 0 km/h
262 12-12-2020 21:45:00 6.6 C 7.25 g/m*3 6.6 C 0 km/h
263 12-12-2020 21:50:00 6.6 C 7.25 g/m*3 6.6 C 0 km/h
264 12-12-2020 21:55:00 6.6 C 7.32 g/m*3 6.6 C 0 km/h
265 12-12-2020 22:00:00 6.6 C 7.32 g/m*3 6.6 C 0 km/h
266 12-12-2020 22:05:00 6.6 C 7.32 g/m*3 6.6 C 0 km/h
267 12-12-2020 22:10:00 6.6 C 7.32 g/m*3 6.6 C 0 km/h
268 12-12-2020 22:15:00 6.6 C 7.32 g/m*3 6.6 C 0 km/h
269 12-12-2020 22:20:00 6.6 C 7.32 g/m*3 6.6 C 0 km/h
270 12-12-2020 22:25:00 6.6 C 7.32 g/m*3 6.6 C 0 km/h
271 12-12-2020 22:30:00 6.6 C 7.32 g/m*3 6.6 C 0 km/h
272 12-12-2020 22:35:00 6.6 C 7.32 g/m*3 6.6 C 0 km/h
273 12-12-2020 22:40:00 6.6 C 7.25 g/m*3 6.6 C 0 km/h
274 12-12-2020 22:45:00 6.5 C 7.2 g/m*3 6.5 C 0 km/h
275 12-12-2020 22:50:00 6.4 C 7.15 g/m*3 6.4 C 0 km/h
Sensor: Nr:Datum:Temp:Abs-Feuchte:Windchill:Wind:
Aussen-T/F 276 12-12-2020 22:55:00 6.3 C 7.11 g/m*3 6.3 C 0 km/h
277 12-12-2020 23:00:00 6.2 C 7.06 g/m*3 6.2 C 0 km/h
278 12-12-2020 23:05:00 6.2 C 7.06 g/m*3 6.2 C 0 km/h
279 12-12-2020 23:10:00 6.2 C 7.06 g/m*3 6.2 C 0 km/h
280 12-12-2020 23:15:00 6.2 C 7.06 g/m*3 6.2 C 0 km/h
281 12-12-2020 23:20:00 6.2 C 7.06 g/m*3 6.2 C 0 km/h
282 12-12-2020 23:25:00 6.1 C 7.01 g/m*3 6.1 C 0 km/h
283 12-12-2020 23:30:00 6.1 C 7.09 g/m*3 6.1 C 0 km/h
284 12-12-2020 23:35:00 6.2 C 7.13 g/m*3 6.2 C 0 km/h
285 12-12-2020 23:40:00 6.2 C 7.13 g/m*3 6.2 C 0 km/h
286 12-12-2020 23:45:00 6.2 C 7.13 g/m*3 6.2 C 0 km/h
287 12-12-2020 23:50:00 6.3 C 7.18 g/m*3 6.3 C 0 km/h
288 12-12-2020 23:55:00 6.3 C 7.18 g/m*3 6.3 C 0 km/h
289 13-12-2020 00:00:00 6.3 C 7.18 g/m*3 6.3 C 0 km/h
290 13-12-2020 00:05:00 6.3 C 7.18 g/m*3 6.3 C 0 km/h
291 13-12-2020 00:10:00 6.4 C 7.23 g/m*3 6.4 C 0 km/h
292 13-12-2020 00:15:00 6.4 C 7.23 g/m*3 6.4 C 0 km/h
293 13-12-2020 00:20:00 6.4 C 7.23 g/m*3 6.4 C 0 km/h
294 13-12-2020 00:25:00 6.4 C 7.23 g/m*3 6.4 C 0 km/h
295 13-12-2020 00:30:00 6.4 C 7.23 g/m*3 6.4 C 0 km/h
296 13-12-2020 00:35:00 6.4 C 7.23 g/m*3 6.4 C 0 km/h
297 13-12-2020 00:40:00 6.4 C 7.23 g/m*3 6.4 C 0 km/h
298 13-12-2020 00:45:00 6.3 C 7.18 g/m*3 6.3 C 0 km/h
299 13-12-2020 00:50:00 6.3 C 7.18 g/m*3 6.3 C 0 km/h
300 13-12-2020 00:55:00 6.3 C 7.18 g/m*3 6.3 C 0 km/h
Sensor: Nr:Datum:Temp:Abs-Feuchte:Windchill:Wind:
Aussen-T/F 301 13-12-2020 01:00:00 6.3 C 7.18 g/m*3 6.3 C 0 km/h
302 13-12-2020 01:05:00 6.2 C 7.13 g/m*3 6.2 C 0 km/h
303 13-12-2020 01:10:00 6.2 C 7.13 g/m*3 6.2 C 0 km/h
304 13-12-2020 01:15:00 6.2 C 7.13 g/m*3 6.2 C 0 km/h
305 13-12-2020 01:20:00 6.2 C 7.13 g/m*3 6.2 C 0 km/h
306 13-12-2020 01:25:00 6.2 C 7.13 g/m*3 6.2 C 0 km/h
307 13-12-2020 01:30:00 6.2 C 7.13 g/m*3 6.2 C 0 km/h
308 13-12-2020 01:35:00 6.1 C 7.09 g/m*3 6.1 C 0 km/h
309 13-12-2020 01:40:00 6.1 C 7.09 g/m*3 6.1 C 0 km/h
310 13-12-2020 01:45:00 6.1 C 7.09 g/m*3 6.1 C 0 km/h
311 13-12-2020 01:50:00 6.2 C 7.13 g/m*3 6.2 C 0 km/h
312 13-12-2020 01:55:00 6.2 C 7.13 g/m*3 6.2 C 0 km/h
313 13-12-2020 02:00:00 6.2 C 7.13 g/m*3 6.2 C 0 km/h
314 13-12-2020 02:05:00 6.3 C 7.18 g/m*3 6.3 C 0 km/h
315 13-12-2020 02:10:00 6.3 C 7.18 g/m*3 6.3 C 0 km/h
316 13-12-2020 02:15:00 6.4 C 7.23 g/m*3 6.4 C 0 km/h
317 13-12-2020 02:20:00 6.4 C 7.23 g/m*3 6.4 C 0 km/h
318 13-12-2020 02:25:00 6.4 C 7.23 g/m*3 6.4 C 0 km/h
319 13-12-2020 02:30:00 6.4 C 7.23 g/m*3 6.4 C 0 km/h
320 13-12-2020 02:35:00 6.4 C 7.23 g/m*3 6.4 C 0 km/h
321 13-12-2020 02:40:00 6.5 C 7.27 g/m*3 6.5 C 0 km/h
322 13-12-2020 02:45:00 6.5 C 7.27 g/m*3 6.5 C 0 km/h
323 13-12-2020 02:50:00 6.5 C 7.27 g/m*3 6.5 C 0 km/h
324 13-12-2020 02:55:00 6.6 C 7.32 g/m*3 6.6 C 0 km/h
325 13-12-2020 03:00:00 6.6 C 7.32 g/m*3 6.6 C 0 km/h
Sensor: Nr:Datum:Temp:Abs-Feuchte:Windchill:Wind:
Aussen-T/F 326 13-12-2020 03:05:00 6.7 C 7.37 g/m*3 6.7 C 0 km/h
327 13-12-2020 03:10:00 6.7 C 7.37 g/m*3 6.7 C 0 km/h
328 13-12-2020 03:15:00 6.8 C 7.42 g/m*3 6.8 C 0 km/h
329 13-12-2020 03:20:00 6.8 C 7.42 g/m*3 6.8 C 1.6 km/h
330 13-12-2020 03:25:00 6.8 C 7.42 g/m*3 6.8 C 0 km/h
331 13-12-2020 03:30:00 6.9 C 7.47 g/m*3 6.9 C 0 km/h
332 13-12-2020 03:35:00 6.9 C 7.47 g/m*3 6.9 C 0 km/h
333 13-12-2020 03:40:00 6.9 C 7.47 g/m*3 6.9 C 0 km/h
334 13-12-2020 03:45:00 6.9 C 7.47 g/m*3 6.9 C 0 km/h
335 13-12-2020 03:50:00 7 C 7.52 g/m*3 7 C 0 km/h
336 13-12-2020 03:55:00 7 C 7.52 g/m*3 7 C 0 km/h
337 13-12-2020 04:00:00 7 C 7.52 g/m*3 7 C 0 km/h
338 13-12-2020 04:05:00 7 C 7.52 g/m*3 7 C 0 km/h
339 13-12-2020 04:10:00 7 C 7.52 g/m*3 7 C 0 km/h
340 13-12-2020 04:15:00 7.1 C 7.57 g/m*3 7.1 C 3.2 km/h
341 13-12-2020 04:20:00 7.2 C 7.61 g/m*3 7.2 C 4.8 km/h
342 13-12-2020 04:25:00 7.3 C 7.66 g/m*3 7.3 C 3.2 km/h
343 13-12-2020 04:30:00 7.3 C 7.66 g/m*3 7.3 C 4.8 km/h
344 13-12-2020 04:35:00 7.3 C 7.66 g/m*3 6.25 C 6.4 km/h
345 13-12-2020 04:40:00 7.4 C 7.71 g/m*3 6.37 C 6.4 km/h
346 13-12-2020 04:45:00 7.4 C 7.71 g/m*3 7.4 C 3.2 km/h
347 13-12-2020 04:50:00 7.4 C 7.71 g/m*3 7.4 C 1.6 km/h
348 13-12-2020 04:55:00 7.4 C 7.71 g/m*3 7.4 C 0 km/h
349 13-12-2020 05:00:00 7.3 C 7.66 g/m*3 7.3 C 0 km/h
350 13-12-2020 05:05:00 7.3 C 7.66 g/m*3 7.3 C 0 km/h
Sensor: Nr:Datum:Temp:Abs-Feuchte:Windchill:Wind:
Aussen-T/F 351 13-12-2020 05:10:00 7.3 C 7.66 g/m*3 7.3 C 0 km/h
352 13-12-2020 05:15:00 7.3 C 7.66 g/m*3 7.3 C 0 km/h
353 13-12-2020 05:20:00 7.3 C 7.66 g/m*3 7.3 C 0 km/h
354 13-12-2020 05:25:00 7.3 C 7.66 g/m*3 7.3 C 0 km/h
355 13-12-2020 05:30:00 7.3 C 7.66 g/m*3 7.3 C 0 km/h
356 13-12-2020 05:35:00 7.3 C 7.66 g/m*3 7.3 C 0 km/h
357 13-12-2020 05:40:00 7.3 C 7.66 g/m*3 7.3 C 0 km/h
358 13-12-2020 05:45:00 7.3 C 7.66 g/m*3 7.3 C 0 km/h
359 13-12-2020 05:50:00 7.3 C 7.66 g/m*3 7.3 C 0 km/h
360 13-12-2020 05:55:00 7.3 C 7.66 g/m*3 7.3 C 0 km/h
361 13-12-2020 06:00:00 7.3 C 7.66 g/m*3 7.3 C 1.6 km/h
362 13-12-2020 06:05:00 7.3 C 7.66 g/m*3 7.3 C 0 km/h
363 13-12-2020 06:10:00 7.3 C 7.66 g/m*3 7.3 C 1.6 km/h
364 13-12-2020 06:15:00 7.3 C 7.66 g/m*3 7.3 C 1.6 km/h
365 13-12-2020 06:20:00 7.3 C 7.66 g/m*3 7.3 C 0 km/h
366 13-12-2020 06:25:00 7.3 C 7.66 g/m*3 7.3 C 0 km/h
367 13-12-2020 06:30:00 7.2 C 7.61 g/m*3 7.2 C 0 km/h
368 13-12-2020 06:35:00 7.2 C 7.61 g/m*3 7.2 C 1.6 km/h
369 13-12-2020 06:40:00 7.2 C 7.61 g/m*3 7.2 C 1.6 km/h
370 13-12-2020 06:45:00 7.3 C 7.66 g/m*3 7.3 C 3.2 km/h
371 13-12-2020 06:50:00 7.3 C 7.66 g/m*3 7.3 C 3.2 km/h
372 13-12-2020 06:55:00 7.3 C 7.66 g/m*3 7.3 C 3.2 km/h
373 13-12-2020 07:00:00 7.4 C 7.71 g/m*3 7.4 C 1.6 km/h
374 13-12-2020 07:05:00 7.3 C 7.66 g/m*3 7.3 C 4.8 km/h
375 13-12-2020 07:10:00 7.3 C 7.66 g/m*3 7.3 C 3.2 km/h
Sensor: Nr:Datum:Temp:Abs-Feuchte:Windchill:Wind:
Aussen-T/F 376 13-12-2020 07:15:00 7.3 C 7.66 g/m*3 7.3 C 4.8 km/h
377 13-12-2020 07:20:00 7.3 C 7.66 g/m*3 7.3 C 0 km/h
378 13-12-2020 07:25:00 7.3 C 7.66 g/m*3 7.3 C 0 km/h
379 13-12-2020 07:30:00 7.3 C 7.66 g/m*3 7.3 C 1.6 km/h
380 13-12-2020 07:35:00 7.3 C 7.66 g/m*3 7.3 C 3.2 km/h
381 13-12-2020 07:40:00 7.3 C 7.66 g/m*3 7.3 C 3.2 km/h
382 13-12-2020 07:45:00 7.3 C 7.66 g/m*3 7.3 C 1.6 km/h
383 13-12-2020 07:50:00 7.3 C 7.66 g/m*3 7.3 C 3.2 km/h
384 13-12-2020 07:55:00 7.3 C 7.66 g/m*3 7.3 C 3.2 km/h
385 13-12-2020 08:00:00 7.3 C 7.66 g/m*3 7.3 C 0 km/h
386 13-12-2020 08:05:00 7.3 C 7.66 g/m*3 7.3 C 4.8 km/h
387 13-12-2020 08:10:00 7.2 C 7.61 g/m*3 7.2 C 3.2 km/h
388 13-12-2020 08:15:00 7.2 C 7.61 g/m*3 7.2 C 1.6 km/h
389 13-12-2020 08:20:00 7.2 C 7.61 g/m*3 7.2 C 1.6 km/h
390 13-12-2020 08:25:00 7.2 C 7.61 g/m*3 7.2 C 0 km/h
391 13-12-2020 08:30:00 7.2 C 7.61 g/m*3 7.2 C 4.8 km/h
392 13-12-2020 08:35:00 7.2 C 7.61 g/m*3 7.2 C 3.2 km/h
393 13-12-2020 08:40:00 7.2 C 7.61 g/m*3 7.2 C 0 km/h
394 13-12-2020 08:45:00 7.2 C 7.61 g/m*3 7.2 C 1.6 km/h
395 13-12-2020 08:50:00 7.2 C 7.61 g/m*3 7.2 C 3.2 km/h
396 13-12-2020 08:55:00 7.2 C 7.61 g/m*3 7.2 C 4.8 km/h
397 13-12-2020 09:00:00 7.2 C 7.61 g/m*3 7.2 C 0 km/h
398 13-12-2020 09:05:00 7.2 C 7.61 g/m*3 7.2 C 4.8 km/h
399 13-12-2020 09:10:00 7.2 C 7.61 g/m*3 7.2 C 4.8 km/h
400 13-12-2020 09:15:00 7.2 C 7.61 g/m*3 7.2 C 0 km/h
Sensor: Nr:Datum:Temp:Abs-Feuchte:Windchill:Wind:
Aussen-T/F 401 13-12-2020 09:20:00 7.2 C 7.61 g/m*3 7.2 C 0 km/h
402 13-12-2020 09:25:00 7.2 C 7.61 g/m*3 7.2 C 0 km/h
403 13-12-2020 09:30:00 7.3 C 7.66 g/m*3 7.3 C 1.6 km/h
404 13-12-2020 09:35:00 7.3 C 7.66 g/m*3 7.3 C 0 km/h
405 13-12-2020 09:40:00 7.3 C 7.66 g/m*3 7.3 C 0 km/h
406 13-12-2020 09:45:00 7.3 C 7.66 g/m*3 7.3 C 0 km/h
407 13-12-2020 09:50:00 7.3 C 7.66 g/m*3 7.3 C 0 km/h
408 13-12-2020 09:55:00 7.2 C 7.61 g/m*3 7.2 C 3.2 km/h
409 13-12-2020 10:00:00 7.1 C 7.57 g/m*3 7.1 C 3.2 km/h
410 13-12-2020 10:05:00 6.8 C 7.42 g/m*3 6.8 C 4.8 km/h
411 13-12-2020 10:10:00 6.7 C 7.37 g/m*3 6.7 C 3.2 km/h
412 13-12-2020 10:15:00 6.5 C 7.27 g/m*3 6.5 C 4.8 km/h
413 13-12-2020 10:20:00 6.4 C 7.23 g/m*3 6.4 C 3.2 km/h
414 13-12-2020 10:25:00 6.3 C 7.18 g/m*3 6.3 C 3.2 km/h
415 13-12-2020 10:30:00 6.2 C 7.13 g/m*3 6.2 C 4.8 km/h
416 13-12-2020 10:35:00 6.3 C 7.18 g/m*3 6.3 C 3.2 km/h
417 13-12-2020 10:40:00 6.3 C 7.18 g/m*3 6.3 C 0 km/h
418 13-12-2020 10:45:00 6.3 C 7.18 g/m*3 6.3 C 0 km/h
419 13-12-2020 10:50:00 6.3 C 7.18 g/m*3 6.3 C 0 km/h
420 13-12-2020 10:55:00 6.3 C 7.18 g/m*3 6.3 C 0 km/h
421 13-12-2020 11:00:00 6.4 C 7.23 g/m*3 4.75 C 8.1 km/h
422 13-12-2020 11:05:00 6.6 C 7.32 g/m*3 6.6 C 4.8 km/h
423 13-12-2020 11:10:00 6.6 C 7.32 g/m*3 6.6 C 1.6 km/h
424 13-12-2020 11:15:00 6.5 C 7.27 g/m*3 4.2 C 11.3 km/h
425 13-12-2020 11:20:00 6.4 C 7.23 g/m*3 6.4 C 3.2 km/h
Sensor: Nr:Datum:Temp:Abs-Feuchte:Windchill:Wind:
Aussen-T/F 426 13-12-2020 11:25:00 6.4 C 7.23 g/m*3 6.4 C 3.2 km/h
427 13-12-2020 11:30:00 6.3 C 7.18 g/m*3 6.3 C 3.2 km/h
428 13-12-2020 11:35:00 6.3 C 7.18 g/m*3 5.1 C 6.4 km/h
429 13-12-2020 11:40:00 6.3 C 7.18 g/m*3 6.3 C 4.8 km/h
430 13-12-2020 11:45:00 6.3 C 7.18 g/m*3 4.64 C 8.1 km/h
431 13-12-2020 11:50:00 6.3 C 7.18 g/m*3 5.1 C 6.4 km/h
432 13-12-2020 11:55:00 6.3 C 7.18 g/m*3 3.96 C 11.3 km/h
433 13-12-2020 12:00:00 6.4 C 7.15 g/m*3 6.4 C 4.8 km/h
434 13-12-2020 12:05:00 6.4 C 7.15 g/m*3 6.4 C 4.8 km/h
435 13-12-2020 12:10:00 6.4 C 7.15 g/m*3 6.4 C 1.6 km/h
436 13-12-2020 12:15:00 6.3 C 7.11 g/m*3 6.3 C 1.6 km/h
437 13-12-2020 12:20:00 6.3 C 7.11 g/m*3 6.3 C 3.2 km/h
438 13-12-2020 12:25:00 6.3 C 7.11 g/m*3 6.3 C 4.8 km/h
439 13-12-2020 12:30:00 6.4 C 7.15 g/m*3 4.39 C 9.7 km/h
440 13-12-2020 12:35:00 6.6 C 7.25 g/m*3 4.63 C 9.7 km/h
441 13-12-2020 12:40:00 6.8 C 7.34 g/m*3 5.22 C 8.1 km/h
442 13-12-2020 12:45:00 6.9 C 7.31 g/m*3 5.34 C 8.1 km/h
443 13-12-2020 12:50:00 7.1 C 7.33 g/m*3 5.58 C 8.1 km/h
444 13-12-2020 12:55:00 7.3 C 7.27 g/m*3 5.16 C 11.3 km/h
445 13-12-2020 13:00:00 7.6 C 7.41 g/m*3 5.82 C 9.7 km/h
446 13-12-2020 13:05:00 7.7 C 7.38 g/m*3 7.7 C 4.8 km/h
447 13-12-2020 13:10:00 7.8 C 7.43 g/m*3 6.83 C 6.4 km/h
448 13-12-2020 13:15:00 7.8 C 7.35 g/m*3 6.83 C 6.4 km/h
449 13-12-2020 13:20:00 7.8 C 7.26 g/m*3 7.8 C 3.2 km/h
450 13-12-2020 13:25:00 7.8 C 7.18 g/m*3 6.83 C 6.4 km/h
Sensor: Nr:Datum:Temp:Abs-Feuchte:Windchill:Wind:
Aussen-T/F 451 13-12-2020 13:30:00 7.8 C 7.18 g/m*3 6.06 C 9.7 km/h
452 13-12-2020 13:35:00 7.8 C 7.1 g/m*3 6.83 C 6.4 km/h
453 13-12-2020 13:40:00 7.9 C 7.23 g/m*3 7.9 C 0 km/h
454 13-12-2020 13:45:00 7.9 C 7.15 g/m*3 7.9 C 4.8 km/h
455 13-12-2020 13:50:00 8 C 7.19 g/m*3 8 C 3.2 km/h
456 13-12-2020 13:55:00 8 C 7.11 g/m*3 7.06 C 6.4 km/h
457 13-12-2020 14:00:00 8 C 7.19 g/m*3 8 C 1.6 km/h
458 13-12-2020 14:05:00 8 C 7.19 g/m*3 6.3 C 9.7 km/h
459 13-12-2020 14:10:00 8 C 7.11 g/m*3 7.06 C 6.4 km/h
460 13-12-2020 14:15:00 7.9 C 7.06 g/m*3 7.9 C 3.2 km/h
461 13-12-2020 14:20:00 7.8 C 7.02 g/m*3 7.8 C 3.2 km/h
462 13-12-2020 14:25:00 7.8 C 7.1 g/m*3 7.8 C 3.2 km/h
463 13-12-2020 14:30:00 7.7 C 7.05 g/m*3 7.7 C 3.2 km/h
464 13-12-2020 14:35:00 7.6 C 7.01 g/m*3 7.6 C 1.6 km/h
465 13-12-2020 14:40:00 7.4 C 6.92 g/m*3 5.93 C 8.1 km/h
466 13-12-2020 14:45:00 7.4 C 6.92 g/m*3 7.4 C 4.8 km/h
467 13-12-2020 14:50:00 7.3 C 6.87 g/m*3 7.3 C 1.6 km/h
468 13-12-2020 14:55:00 7.2 C 6.91 g/m*3 7.2 C 4.8 km/h
469 13-12-2020 15:00:00 7 C 6.74 g/m*3 7 C 4.8 km/h
470 13-12-2020 15:05:00 6.9 C 6.77 g/m*3 6.9 C 3.2 km/h
471 13-12-2020 15:10:00 6.8 C 6.73 g/m*3 6.8 C 4.8 km/h
472 13-12-2020 15:15:00 6.7 C 6.69 g/m*3 6.7 C 3.2 km/h
473 13-12-2020 15:20:00 6.6 C 6.72 g/m*3 6.6 C 4.8 km/h
474 13-12-2020 15:25:00 6.4 C 6.63 g/m*3 6.4 C 4.8 km/h
475 13-12-2020 15:30:00 6.3 C 6.59 g/m*3 5.1 C 6.4 km/h
Sensor: Nr:Datum:Temp:Abs-Feuchte:Windchill:Wind:
Aussen-T/F 476 13-12-2020 15:35:00 6.3 C 6.66 g/m*3 6.3 C 4.8 km/h
477 13-12-2020 15:40:00 6.2 C 6.62 g/m*3 6.2 C 3.2 km/h
478 13-12-2020 15:45:00 6.2 C 6.62 g/m*3 6.2 C 3.2 km/h
479 13-12-2020 15:50:00 6.1 C 6.58 g/m*3 6.1 C 3.2 km/h
480 13-12-2020 15:55:00 6.1 C 6.58 g/m*3 6.1 C 4.8 km/h
481 13-12-2020 16:00:00 6 C 6.53 g/m*3 6 C 4.8 km/h
482 13-12-2020 16:05:00 5.9 C 6.56 g/m*3 5.9 C 4.8 km/h
483 13-12-2020 16:10:00 5.8 C 6.45 g/m*3 5.8 C 4.8 km/h
484 13-12-2020 16:15:00 5.7 C 6.4 g/m*3 5.7 C 4.8 km/h
485 13-12-2020 16:20:00 5.6 C 6.43 g/m*3 5.6 C 4.8 km/h
486 13-12-2020 16:25:00 5.4 C 6.35 g/m*3 4.06 C 6.4 km/h
487 13-12-2020 16:30:00 5.3 C 6.31 g/m*3 5.3 C 4.8 km/h
488 13-12-2020 16:35:00 5.1 C 6.22 g/m*3 5.1 C 4.8 km/h
489 13-12-2020 16:40:00 5 C 6.18 g/m*3 5 C 4.8 km/h
490 13-12-2020 16:45:00 4.8 C 6.1 g/m*3 4.8 C 4.8 km/h
491 13-12-2020 16:50:00 4.7 C 6.06 g/m*3 4.7 C 4.8 km/h
492 13-12-2020 16:55:00 4.6 C 6.09 g/m*3 4.6 C 4.8 km/h
493 13-12-2020 17:00:00 4.5 C 6.05 g/m*3 4.5 C 4.8 km/h
494 13-12-2020 17:05:00 4.4 C 6.01 g/m*3 4.4 C 4.8 km/h
495 13-12-2020 17:10:00 4.3 C 5.97 g/m*3 4.3 C 4.8 km/h
496 13-12-2020 17:15:00 4.2 C 5.93 g/m*3 4.2 C 4.8 km/h
497 13-12-2020 17:20:00 4.2 C 5.93 g/m*3 4.2 C 4.8 km/h
498 13-12-2020 17:25:00 4.1 C 5.89 g/m*3 4.1 C 4.8 km/h
499 13-12-2020 17:30:00 3.9 C 5.87 g/m*3 3.9 C 4.8 km/h
500 13-12-2020 17:35:00 3.9 C 5.87 g/m*3 3.9 C 4.8 km/h
Sensor: Nr:Datum:Temp:Abs-Feuchte:Windchill:Wind:
Aussen-T/F 501 13-12-2020 17:40:00 3.8 C 5.83 g/m*3 3.8 C 4.8 km/h
502 13-12-2020 17:45:00 3.8 C 5.83 g/m*3 3.8 C 4.8 km/h
503 13-12-2020 17:50:00 3.7 C 5.8 g/m*3 3.7 C 4.8 km/h
504 13-12-2020 17:55:00 3.7 C 5.8 g/m*3 3.7 C 4.8 km/h
505 13-12-2020 18:00:00 3.7 C 5.86 g/m*3 3.7 C 0 km/h
506 13-12-2020 18:05:00 3.6 C 5.82 g/m*3 3.6 C 0 km/h
507 13-12-2020 18:10:00 3.6 C 5.82 g/m*3 3.6 C 0 km/h
508 13-12-2020 18:15:00 3.6 C 5.82 g/m*3 3.6 C 0 km/h
509 13-12-2020 18:20:00 3.5 C 5.78 g/m*3 3.5 C 0 km/h
510 13-12-2020 18:25:00 3.4 C 5.74 g/m*3 3.4 C 0 km/h
511 13-12-2020 18:30:00 3.4 C 5.74 g/m*3 3.4 C 0 km/h
512 13-12-2020 18:35:00 3.4 C 5.74 g/m*3 3.4 C 0 km/h
513 13-12-2020 18:40:00 3.4 C 5.74 g/m*3 3.4 C 0 km/h
514 13-12-2020 18:45:00 3.4 C 5.74 g/m*3 3.4 C 0 km/h
515 13-12-2020 18:50:00 3.5 C 5.84 g/m*3 3.5 C 0 km/h
516 13-12-2020 18:55:00 3.5 C 5.84 g/m*3 3.5 C 0 km/h
517 13-12-2020 19:00:00 3.6 C 5.88 g/m*3 3.6 C 0 km/h
518 13-12-2020 19:05:00 3.6 C 5.88 g/m*3 3.6 C 0 km/h
519 13-12-2020 19:10:00 3.6 C 5.88 g/m*3 3.6 C 0 km/h
520 13-12-2020 19:15:00 3.6 C 5.88 g/m*3 3.6 C 0 km/h
521 13-12-2020 19:20:00 3.6 C 5.88 g/m*3 3.6 C 0 km/h
522 13-12-2020 19:25:00 3.6 C 5.88 g/m*3 3.6 C 0 km/h
523 13-12-2020 19:30:00 3.6 C 5.88 g/m*3 3.6 C 0 km/h
524 13-12-2020 19:35:00 3.6 C 5.88 g/m*3 3.6 C 0 km/h
525 13-12-2020 19:40:00 3.6 C 5.88 g/m*3 3.6 C 0 km/h
Sensor: Nr:Datum:Temp:Abs-Feuchte:Windchill:Wind:
Aussen-T/F 526 13-12-2020 19:45:00 3.6 C 5.88 g/m*3 3.6 C 0 km/h
527 13-12-2020 19:50:00 3.6 C 5.88 g/m*3 3.6 C 0 km/h
528 13-12-2020 19:55:00 3.6 C 5.88 g/m*3 3.6 C 0 km/h
529 13-12-2020 20:00:00 3.6 C 5.88 g/m*3 3.6 C 0 km/h
530 13-12-2020 20:05:00 3.6 C 5.88 g/m*3 3.6 C 0 km/h
531 13-12-2020 20:10:00 3.6 C 5.88 g/m*3 3.6 C 0 km/h
532 13-12-2020 20:15:00 3.5 C 5.84 g/m*3 3.5 C 0 km/h
533 13-12-2020 20:20:00 3.5 C 5.84 g/m*3 3.5 C 0 km/h
534 13-12-2020 20:25:00 3.5 C 5.84 g/m*3 3.5 C 0 km/h
535 13-12-2020 20:30:00 3.6 C 5.88 g/m*3 3.6 C 0 km/h
536 13-12-2020 20:35:00 3.7 C 5.92 g/m*3 3.7 C 0 km/h
537 13-12-2020 20:40:00 3.8 C 6.02 g/m*3 3.8 C 4.8 km/h
538 13-12-2020 20:45:00 3.8 C 6.02 g/m*3 3.8 C 0 km/h
539 13-12-2020 20:50:00 3.9 C 6.06 g/m*3 3.9 C 0 km/h
540 13-12-2020 20:55:00 3.9 C 6.06 g/m*3 3.9 C 0 km/h
541 13-12-2020 21:00:00 3.9 C 6.06 g/m*3 3.9 C 0 km/h
542 13-12-2020 21:05:00 4 C 6.04 g/m*3 4 C 0 km/h
543 13-12-2020 21:10:00 4.1 C 6.14 g/m*3 4.1 C 3.2 km/h
544 13-12-2020 21:15:00 4.2 C 6.19 g/m*3 4.2 C 3.2 km/h
545 13-12-2020 21:20:00 4.3 C 6.23 g/m*3 4.3 C 1.6 km/h
546 13-12-2020 21:25:00 4.3 C 6.16 g/m*3 4.3 C 3.2 km/h
547 13-12-2020 21:30:00 4.3 C 6.16 g/m*3 4.3 C 0 km/h
548 13-12-2020 21:35:00 4.4 C 6.2 g/m*3 4.4 C 0 km/h
549 13-12-2020 21:40:00 4.4 C 6.2 g/m*3 4.4 C 0 km/h
550 13-12-2020 21:45:00 4.4 C 6.2 g/m*3 4.4 C 0 km/h
Sensor: Nr:Datum:Temp:Abs-Feuchte:Windchill:Wind:
Aussen-T/F 551 13-12-2020 21:50:00 4.3 C 6.16 g/m*3 4.3 C 0 km/h
552 13-12-2020 21:55:00 4.3 C 6.16 g/m*3 4.3 C 1.6 km/h
553 13-12-2020 22:00:00 4.2 C 6.06 g/m*3 4.2 C 0 km/h
554 13-12-2020 22:05:00 3.9 C 5.94 g/m*3 3.9 C 0 km/h
555 13-12-2020 22:10:00 3.8 C 5.9 g/m*3 3.8 C 3.2 km/h
556 13-12-2020 22:15:00 3.6 C 5.82 g/m*3 3.6 C 3.2 km/h
557 13-12-2020 22:20:00 3.5 C 5.78 g/m*3 3.5 C 3.2 km/h
558 13-12-2020 22:25:00 3.4 C 5.74 g/m*3 3.4 C 3.2 km/h
559 13-12-2020 22:30:00 3.3 C 5.7 g/m*3 3.3 C 1.6 km/h
560 13-12-2020 22:35:00 3.3 C 5.7 g/m*3 3.3 C 0 km/h
561 13-12-2020 22:40:00 3.3 C 5.7 g/m*3 3.3 C 0 km/h
562 13-12-2020 22:45:00 3.3 C 5.7 g/m*3 3.3 C 1.6 km/h
563 13-12-2020 22:50:00 3.2 C 5.66 g/m*3 3.2 C 0 km/h
564 13-12-2020 22:55:00 3.1 C 5.63 g/m*3 3.1 C 4.8 km/h
565 13-12-2020 23:00:00 3.1 C 5.63 g/m*3 3.1 C 0 km/h
566 13-12-2020 23:05:00 3.1 C 5.63 g/m*3 3.1 C 4.8 km/h
567 13-12-2020 23:10:00 3.1 C 5.63 g/m*3 3.1 C 3.2 km/h
568 13-12-2020 23:15:00 3 C 5.59 g/m*3 3 C 3.2 km/h
569 13-12-2020 23:20:00 3.1 C 5.69 g/m*3 0.87 C 8.1 km/h
570 13-12-2020 23:25:00 3.2 C 5.72 g/m*3 3.2 C 1.6 km/h
571 13-12-2020 23:30:00 3.1 C 5.69 g/m*3 3.1 C 3.2 km/h
572 13-12-2020 23:35:00 3.1 C 5.69 g/m*3 3.1 C 3.2 km/h
573 13-12-2020 23:40:00 3.3 C 5.76 g/m*3 3.3 C 1.6 km/h
574 13-12-2020 23:45:00 3.3 C 5.76 g/m*3 3.3 C 1.6 km/h
575 13-12-2020 23:50:00 3.2 C 5.72 g/m*3 3.2 C 1.6 km/h
Sensor: Nr:Datum:Temp:Abs-Feuchte:Windchill:Wind:
Aussen-T/F 576 13-12-2020 23:55:00 3.2 C 5.72 g/m*3 3.2 C 1.6 km/h

Legende:
   Min
   Max


Maximal/Minimal-Werte vom 14.04.2020 - 16.05.2020

Sensor Min Max Avg
Temp
(Aussen-T/F)
-0.1 °C
15-04-2020  06:55:00
26.2 °C
17-04-2020  18:05:00
11.98 °C

Die Daten stammen von einer Davis Vantage Pro 2 Wetter-Station und werden unter Linux mit der Software wview2wettercgi und aufbereitet. Alle Angaben erfolgen ohne Gewähr für ihre Vollständigkeit oder Richtigkeit.
Kontakt: Rainer Krienke krienke@uni-koblenz.de . Meine Webseiten an der Uni Koblenz oder privat.
Version: $Revision: 0.78 $